DELTA 1 DEB, 21380

Orbit data source: Space-Track

DELTA 1 DEB, 21380 is space debris in SSO originally from a launch on Thu, 12 Jun 1975 UTC launched from the Air Force Western Test Range (AFWTR). Debris objects in space refer to the collection of defunct objects orbiting the Earth. Examples of debris include non-operational satellites, rocket bodies, and fragments generated from explosions, collisions, or faulty payload assembly.

Loading next visibility...
Identifier
21380, 1975-052DA
Orbit
SSO
Country
Flag of USUS
Related business
Manufacturer
Unknown
Mission
Spacecraft
Bus & Motor
Unknown
Mass
Unknown
Launch date (UTC)
1975-06-12 (51 years ago)
Launch vehicle
Unknown
Launch site
Air Force Western Test Range (AFWTR)
Object type
Payload
Rocket body
Debris
Shape & HBR
Unknown shape, 0.1 m
Radar Cross Section
Medium (>0.1 m² and <1 m²)

Expand to show TLE details & history
Last TLE update: 15 hours ago

TLE from 15 hours ago
0 DELTA 1 DEB
1 21380U 75052DA  26168.85247127  .00000663  00000-0  88968-3 0  9999
2 21380  99.4154 129.3361 0060335 159.1839 270.2268 13.63029794738702
Epoch: 2026-06-17T20:27Z
TLE epoch observation values (Epoch: 2026-06-17T20:27:33.517Z)
Latitude
66.90145°
Longitude
-106.4128°
Altitude
1,036.296 km
Speed
7.34 km/s
True Right ascension
07h 06m 19s
True Declination
66° 46' 54"
Sunlit
Object was in daylight at epoch
Visualization orbit readout
Latitude
Unknown
Longitude
Unknown
Altitude
Unknown
Speed
Unknown
Apparent Right ascension
Unknown
Apparent Declination
Unknown
Sunlit
N/A
Visualization observer readout
Local Sidereal Time
22:01:30
Azimuth
Unknown
Elevation
Unknown
Doppler factor
Unknown
Orbital elements
Apogee altitude
1,066.619 km
Perigee altitude
977.322 km
Semi-major axis
7,400.108 km
Eccentricity
0.00603
Inclination
99.4154°
RAAN
129.3361°
Arg. of periapsis
159.1839°
True anomaly
269.53541°
Mean anomaly
270.2268°
Eccentric anomaly
269.88111°
Mean motion
3.40946 °/min
Orbital period
105.59 mins
BSTAR
0.00088968
Loading maneuver chart data...
Computing Atmospheric mass density...

Documentation

Showing up to 5 results
|